| time (UTC) | temp F | wind direction | speed knots | gust knots | rain 1hr in | rain 24hr in | rain mn in | humidity % | barometer mb |
| 20260504050642 | 59 | 253 | 2.6 | 3.5 | 0.00 | 0.00 | 0.00 | 47 | 1013.2 |
| 20260504045642 | 58 | 171 | 0.0 | 0.0 | 0.00 | 0.00 | 0.00 | 50 | 1013.2 |
| 20260504044642 | 56 | 192 | 0.0 | 0.0 | 0.00 | 0.00 | 0.00 | 50 | 1013.1 |
| 20260504043630 | 54 | 216 | 1.7 | 1.7 | 0.00 | 0.00 | 0.00 | 52 | 1013.1 |
| 20260504042629 | 54 | 182 | 0.0 | 0.0 | 0.00 | 0.00 | 0.00 | 55 | 1013.0 |
| 20260504041617 | 53 | 204 | 1.7 | 1.7 | 0.00 | 0.00 | 0.00 | 55 | 1012.9 |
| 20260504040605 | 52 | 170 | 1.7 | 1.7 | 0.00 | 0.00 | 0.00 | 56 | 1012.9 |
| 20260504035552 | 51 | 180 | 1.7 | 1.7 | 0.00 | 0.00 | 0.00 | 57 | 1012.8 |
| 20260504034551 | 50 | 174 | 0.9 | 0.9 | 0.00 | 0.00 | 0.00 | 61 | 1012.8 |
| 20260504033539 | 50 | 190 | 0.0 | 0.0 | 0.00 | 0.00 | 0.00 | 62 | 1012.8 |
| 20260504032539 | 49 | 210 | 0.0 | 0.0 | 0.00 | 0.00 | 0.00 | 63 | 1012.9 |
| 20260504031528 | 49 | 179 | 0.0 | 0.0 | 0.00 | 0.00 | 0.00 | 63 | 1012.8 |
| 20260504030526 | 50 | 196 | 0.9 | 0.9 | 0.00 | 0.00 | 0.00 | 62 | 1012.9 |
| 20260504025527 | 50 | 192 | 0.0 | 0.0 | 0.00 | 0.00 | 0.00 | 62 | 1012.9 |
| 20260504024526 | 50 | 164 | 1.7 | 1.7 | 0.00 | 0.00 | 0.00 | 63 | 1012.8 |
| 20260504023526 | 50 | 196 | 0.9 | 0.9 | 0.00 | 0.00 | 0.00 | 62 | 1012.8 |
| 20260504022514 | 50 | 160 | 0.9 | 0.9 | 0.00 | 0.00 | 0.00 | 62 | 1012.8 |
| 20260504021514 | 51 | 186 | 0.9 | 0.9 | 0.00 | 0.00 | 0.00 | 61 | 1012.9 |
| 20260504020514 | 51 | 162 | 2.6 | 3.5 | 0.00 | 0.00 | 0.00 | 61 | 1012.9 |
| 20260504015502 | 51 | 192 | 0.9 | 0.9 | 0.00 | 0.00 | 0.00 | 61 | 1012.9 |
| 20260504014449 | 51 | 192 | 1.7 | 1.7 | 0.00 | 0.00 | 0.00 | 62 | 1012.9 |
| 20260504013437 | 51 | 222 | 0.0 | 0.0 | 0.00 | 0.00 | 0.00 | 60 | 1012.9 |
| 20260504012436 | 51 | 181 | 0.0 | 0.0 | 0.00 | 0.00 | 0.00 | 60 | 1013.0 |
| 20260504011424 | 52 | 173 | 0.9 | 0.9 | 0.00 | 0.00 | 0.00 | 59 | 1013.0 |
| 20260504010424 | 51 | 204 | 1.7 | 1.7 | 0.00 | 0.00 | 0.00 | 60 | 1013.1 |
| 20260504005424 | 52 | 185 | 0.0 | 0.0 | 0.00 | 0.00 | 0.00 | 59 | 1013.1 |
| 20260504004424 | 53 | 173 | 0.0 | 0.0 | 0.00 | 0.00 | 0.00 | 57 | 1013.1 |
| 20260504003413 | 53 | 180 | 1.7 | 1.7 | 0.00 | 0.00 | 0.00 | 55 | 1013.2 |
| 20260504002411 | 54 | 156 | 0.9 | 0.9 | 0.00 | 0.00 | 0.00 | 56 | 1013.2 |
| 20260504001411 | 54 | 210 | 0.0 | 0.0 | 0.00 | 0.00 | 0.00 | 56 | 1013.2 |
| 20260504000401 | 53 | 174 | 2.6 | 2.6 | 0.00 | 0.00 | 0.00 | 57 | 1013.2 |
| 20260503235359 | 53 | 210 | 0.9 | 0.9 | 0.00 | 0.00 | 0.00 | 58 | 1013.3 |
| 20260503234359 | 52 | 182 | 0.0 | 0.0 | 0.00 | 0.00 | 0.00 | 60 | 1013.3 |
| 20260503233358 | 53 | 186 | 0.0 | 0.0 | 0.00 | 0.00 | 0.00 | 60 | 1013.4 |
| 20260503232347 | 53 | 198 | 0.0 | 0.0 | 0.00 | 0.00 | 0.00 | 58 | 1013.4 |
| 20260503231347 | 53 | 180 | 0.0 | 0.0 | 0.00 | 0.00 | 0.00 | 59 | 1013.4 |
| 20260503230346 | 53 | 216 | 0.0 | 0.0 | 0.00 | 0.00 | 0.00 | 60 | 1013.5 |
| 20260503225334 | 53 | 182 | 0.0 | 0.0 | 0.00 | 0.00 | 0.00 | 61 | 1013.4 |
| 20260503224334 | 54 | 228 | 0.0 | 0.0 | 0.00 | 0.00 | 0.00 | 61 | 1013.5 |
| 20260503223322 | 53 | 186 | 0.0 | 0.0 | 0.00 | 0.00 | 0.00 | 61 | 1013.5 |
| 20260503222321 | 53 | 198 | 0.0 | 0.0 | 0.00 | 0.00 | 0.00 | 62 | 1013.5 |
| 20260503221321 | 54 | 186 | 0.0 | 0.0 | 0.00 | 0.00 | 0.00 | 61 | 1013.5 |
| 20260503220310 | 55 | 198 | 0.0 | 0.0 | 0.00 | 0.00 | 0.00 | 59 | 1013.6 |
| 20260503215257 | 56 | 120 | 0.0 | 0.0 | 0.00 | 0.00 | 0.00 | 57 | 1013.6 |
| 20260503214244 | 55 | 258 | 0.0 | 0.0 | 0.00 | 0.00 | 0.00 | 58 | 1013.5 |
| 20260503213232 | 54 | 186 | 0.0 | 0.0 | 0.00 | 0.00 | 0.00 | 60 | 1013.5 |
| 20260503212231 | 53 | 192 | 0.0 | 0.0 | 0.00 | 0.00 | 0.00 | 62 | 1013.5 |
| 20260503211231 | 54 | 204 | 0.0 | 0.0 | 0.00 | 0.00 | 0.00 | 61 | 1013.5 |
| 20260503210219 | 52 | 192 | 0.0 | 0.0 | 0.00 | 0.00 | 0.00 | 65 | 1013.6 |
| 20260503205219 | 51 | 186 | 0.0 | 0.0 | 0.00 | 0.00 | 0.00 | 68 | 1013.5 |
| 20260503204219 | 51 | 198 | 0.0 | 0.0 | 0.00 | 0.00 | 0.00 | 69 | 1013.5 |
| 20260503203206 | 51 | 198 | 0.0 | 0.0 | 0.00 | 0.00 | 0.00 | 70 | 1013.5 |
| 20260503202154 | 52 | 198 | 0.0 | 0.0 | 0.00 | 0.00 | 0.00 | 68 | 1013.5 |
| 20260503201154 | 53 | 193 | 0.0 | 0.0 | 0.00 | 0.00 | 0.00 | 68 | 1013.4 |
| 20260503200141 | 54 | 193 | 0.0 | 0.0 | 0.00 | 0.00 | 0.00 | 66 | 1013.5 |
| 20260503195141 | 54 | 193 | 0.0 | 0.0 | 0.00 | 0.00 | 0.00 | 66 | 1013.5 |
| 20260503194129 | 54 | 204 | 0.0 | 0.0 | 0.00 | 0.00 | 0.00 | 68 | 1013.6 |
| 20260503193128 | 55 | 204 | 0.0 | 0.0 | 0.00 | 0.00 | 0.00 | 64 | 1013.5 |
| 20260503192116 | 56 | 204 | 0.0 | 0.0 | 0.00 | 0.00 | 0.00 | 59 | 1013.5 |
| 20260503191104 | 56 | 204 | 0.0 | 0.0 | 0.00 | 0.00 | 0.00 | 62 | 1013.4 |
| 20260503190051 | 58 | 204 | 0.0 | 0.0 | 0.00 | 0.00 | 0.00 | 58 | 1013.4 |
| 20260503185038 | 59 | 204 | 0.0 | 0.0 | 0.00 | 0.00 | 0.00 | 54 | 1013.3 |
| 20260503184026 | 60 | 204 | 0.0 | 0.0 | 0.00 | 0.00 | 0.00 | 50 | 1013.3 |
| 20260503183014 | 62 | 204 | 0.0 | 0.0 | 0.00 | 0.00 | 0.00 | 48 | 1013.2 |
| 20260503182003 | 63 | 204 | 0.0 | 0.0 | 0.00 | 0.00 | 0.00 | 48 | 1013.2 |
| 20260503181001 | 65 | 203 | 0.0 | 0.0 | 0.00 | 0.00 | 0.00 | 43 | 1013.2 |
| 20260503175949 | 67 | 198 | 0.0 | 0.0 | 0.00 | 0.00 | 0.00 | 41 | 1013.1 |
| 20260503174948 | 68 | 172 | 0.0 | 0.0 | 0.00 | 0.00 | 0.00 | 38 | 1013.1 |
| 20260503173948 | 70 | 151 | 0.0 | 0.0 | 0.00 | 0.00 | 0.00 | 36 | 1013.0 |
| 20260503172936 | 71 | 198 | 0.0 | 0.0 | 0.00 | 0.00 | 0.00 | 35 | 1013.0 |
| 20260503171937 | 72 | 222 | 0.0 | 0.0 | 0.00 | 0.00 | 0.00 | 34 | 1012.9 |
| 20260503170936 | 74 | 174 | 0.9 | 0.9 | 0.00 | 0.00 | 0.00 | 31 | 1012.9 |
| 20260503130642 | 78 | 199 | 2.6 | 3.5 | 0.00 | 0.00 | 0.00 | 24 | 1014.8 |
| 20260503110526 | 75 | 244 | 3.5 | 3.5 | 0.00 | 0.00 | 0.00 | 27 | 1015.9 |
| 20260503090346 | 71 | 155 | 3.5 | 3.5 | 0.00 | 0.00 | 0.00 | 32 | 1017.1 |
| 20260503072230 | 67 | 121 | 2.6 | 3.5 | 0.00 | 0.00 | 0.00 | 42 | 1017.3 |
| 20260503071219 | 66 | 172 | 1.7 | 1.7 | 0.00 | 0.00 | 0.00 | 44 | 1017.2 |
| 20260503070218 | 64 | 211 | 3.5 | 3.5 | 0.00 | 0.00 | 0.00 | 46 | 1017.3 |